| time (UTC) | temp F | wind direction | speed knots | gust knots | rain 1hr in | rain 24hr in | rain mn in | humidity % | barometer mb |
| 20260506200503 | 61 | 230 | 0.0 | 1.7 | 0.00 | 0.04 | 0.00 | 81 | 1014.4 |
| 20260506200003 | 61 | 278 | 0.0 | 1.7 | 0.00 | 0.04 | 0.00 | 80 | 1014.5 |
| 20260506195002 | 61 | 320 | 0.9 | 3.5 | 0.00 | 0.04 | 0.00 | 80 | 1014.4 |
| 20260506194502 | 61 | 8 | 0.9 | 3.5 | 0.00 | 0.04 | 0.00 | 81 | 1014.1 |
| 20260506194002 | 60 | 45 | 0.9 | 1.7 | 0.00 | 0.04 | 0.00 | 82 | 1013.7 |
| 20260506193502 | 60 | 110 | 0.0 | 1.7 | 0.00 | 0.04 | 0.00 | 84 | 1013.7 |
| 20260506193003 | 59 | 124 | 0.0 | 1.7 | 0.00 | 0.04 | 0.00 | 84 | 1013.9 |
| 20260506192502 | 58 | 140 | 0.0 | 1.7 | 0.00 | 0.04 | 0.00 | 84 | 1014.2 |
| 20260506192002 | 58 | 61 | 0.9 | 3.5 | 0.00 | 0.04 | 0.00 | 83 | 1014.7 |
| 20260506191502 | 58 | 352 | 0.9 | 3.5 | 0.00 | 0.04 | 0.00 | 83 | 1014.9 |
| 20260506191002 | 59 | 265 | 0.0 | 1.7 | 0.00 | 0.04 | 0.00 | 83 | 1014.8 |
| 20260506190502 | 59 | 264 | 0.0 | 1.7 | 0.00 | 0.04 | 0.00 | 83 | 1014.4 |
| 20260506185502 | 59 | 274 | 0.0 | 0.9 | 0.00 | 0.04 | 0.00 | 83 | 1014.1 |
| 20260506185002 | 59 | 272 | 0.0 | 0.9 | 0.00 | 0.04 | 0.00 | 82 | 1014.2 |
| 20260506184002 | 59 | 124 | 0.0 | 7.0 | 0.00 | 0.04 | 0.00 | 83 | 1014.2 |
| 20260506183503 | 59 | 112 | 0.0 | 1.7 | 0.00 | 0.04 | 0.00 | 84 | 1014.1 |
| 20260506183002 | 59 | 159 | 0.9 | 2.6 | 0.00 | 0.04 | 0.00 | 83 | 1014.2 |
| 20260506182502 | 58 | 79 | 0.9 | 3.5 | 0.00 | 0.04 | 0.00 | 83 | 1013.8 |
| 20260506181502 | 58 | 13 | 0.9 | 2.6 | 0.00 | 0.04 | 0.00 | 84 | 1013.4 |
| 20260506181003 | 58 | 22 | 0.9 | 3.5 | 0.00 | 0.04 | 0.00 | 85 | 1012.9 |
| 20260506180502 | 58 | 26 | 0.9 | 3.5 | 0.00 | 0.04 | 0.00 | 85 | 1012.9 |
| 20260506180002 | 58 | 25 | 1.7 | 4.3 | 0.00 | 0.04 | 0.00 | 85 | 1012.8 |
| 20260506175002 | 58 | 53 | 0.9 | 2.6 | 0.00 | 0.04 | 0.00 | 85 | 1012.9 |
| 20260506174502 | 58 | 48 | 0.9 | 2.6 | 0.00 | 0.04 | 0.00 | 85 | 1013.3 |
| 20260506173503 | 57 | 66 | 0.9 | 3.5 | 0.00 | 0.04 | 0.00 | 85 | 1013.6 |
| 20260506173003 | 57 | 91 | 0.9 | 2.6 | 0.00 | 0.04 | 0.00 | 86 | 1013.8 |
| 20260506172502 | 57 | 98 | 0.0 | 2.6 | 0.00 | 0.04 | 0.00 | 86 | 1014.3 |
| 20260506172002 | 57 | 83 | 0.0 | 1.7 | 0.00 | 0.04 | 0.00 | 86 | 1014.9 |
| 20260506171502 | 57 | 73 | 0.9 | 1.7 | 0.00 | 0.04 | 0.00 | 85 | 1014.7 |
| 20260506171003 | 57 | 201 | 0.9 | 2.6 | 0.00 | 0.04 | 0.00 | 85 | 1014.8 |
| 20260506170502 | 57 | 227 | 0.9 | 2.6 | 0.00 | 0.04 | 0.00 | 85 | 1014.8 |
| 20260506170003 | 57 | 60 | 0.9 | 2.6 | 0.00 | 0.04 | 0.00 | 85 | 1014.3 |
| 20260506165502 | 58 | 54 | 0.9 | 2.6 | 0.00 | 0.04 | 0.00 | 84 | 1013.4 |
| 20260506165003 | 58 | 59 | 0.9 | 2.6 | 0.00 | 0.04 | 0.00 | 83 | 1013.7 |
| 20260506164502 | 58 | 79 | 0.9 | 2.6 | 0.00 | 0.04 | 0.00 | 83 | 1014.0 |
| 20260506164003 | 59 | 60 | 0.9 | 3.5 | 0.00 | 0.04 | 0.00 | 83 | 1014.1 |
| 20260506163502 | 59 | 35 | 0.9 | 4.3 | 0.00 | 0.04 | 0.00 | 83 | 1014.2 |
| 20260506163002 | 59 | 67 | 0.9 | 4.3 | 0.00 | 0.04 | 0.00 | 85 | 1014.2 |
| 20260506162503 | 58 | 24 | 0.9 | 3.5 | 0.00 | 0.04 | 0.00 | 85 | 1014.1 |
| 20260506162002 | 58 | 344 | 0.0 | 2.6 | 0.00 | 0.04 | 0.00 | 87 | 1014.3 |
| 20260506161502 | 57 | 22 | 0.0 | 3.5 | 0.00 | 0.04 | 0.00 | 87 | 1014.4 |
| 20260506160502 | 56 | 111 | 0.0 | 0.9 | 0.00 | 0.04 | 0.00 | 88 | 1014.5 |
| 20260506160003 | 56 | 111 | 0.0 | 0.9 | 0.00 | 0.04 | 0.00 | 88 | 1014.9 |
| 20260506155502 | 56 | 111 | 0.0 | 0.9 | 0.00 | 0.04 | 0.00 | 87 | 1014.6 |
| 20260506155003 | 56 | 117 | 0.0 | 3.5 | 0.00 | 0.04 | 0.00 | 87 | 1014.8 |
| 20260506153002 | 56 | 278 | 0.9 | 2.6 | 0.00 | 0.04 | 0.00 | 83 | 1014.9 |
| 20260506152002 | 56 | 308 | 0.9 | 4.3 | 0.00 | 0.04 | 0.00 | 83 | 1016.2 |
| 20260506151002 | 56 | 80 | 0.0 | 1.7 | 0.00 | 0.04 | 0.00 | 84 | 1015.1 |
| 20260506150502 | 56 | 36 | 0.9 | 2.6 | 0.00 | 0.04 | 0.00 | 84 | 1014.6 |
| 20260506145502 | 56 | 80 | 0.0 | 1.7 | 0.00 | 0.04 | 0.00 | 84 | 1014.5 |
| 20260506145003 | 56 | 18 | 0.9 | 1.7 | 0.00 | 0.04 | 0.00 | 84 | 1014.5 |
| 20260506144502 | 56 | 6 | 0.9 | 2.6 | 0.00 | 0.04 | 0.00 | 84 | 1014.5 |
| 20260506144002 | 56 | 21 | 0.9 | 2.6 | 0.00 | 0.04 | 0.00 | 84 | 1014.1 |
| 20260506143003 | 56 | 44 | 0.0 | 1.7 | 0.00 | 0.04 | 0.00 | 83 | 1014.5 |
| 20260506142503 | 56 | 24 | 0.0 | 1.7 | 0.00 | 0.04 | 0.00 | 84 | 1014.1 |
| 20260506142002 | 55 | 4 | 0.9 | 2.6 | 0.00 | 0.04 | 0.00 | 83 | 1014.1 |
| 20260506141503 | 56 | 8 | 0.9 | 2.6 | 0.00 | 0.04 | 0.00 | 84 | 1014.1 |
| 20260506140503 | 55 | 24 | 0.9 | 1.7 | 0.00 | 0.04 | 0.00 | 84 | 1013.9 |
| 20260506140003 | 56 | 43 | 0.0 | 1.7 | 0.00 | 0.04 | 0.00 | 84 | 1013.7 |
| 20260506135503 | 56 | 40 | 0.0 | 1.7 | 0.00 | 0.04 | 0.00 | 84 | 1013.7 |
| 20260506134503 | 55 | 54 | 0.9 | 2.6 | 0.00 | 0.04 | 0.00 | 84 | 1013.8 |
| 20260506133502 | 56 | 41 | 0.9 | 1.7 | 0.00 | 0.04 | 0.00 | 85 | 1013.7 |
| 20260506132502 | 56 | 296 | 0.0 | 1.7 | 0.00 | 0.04 | 0.00 | 84 | 1013.4 |
| 20260506132003 | 56 | 293 | 0.9 | 1.7 | 0.00 | 0.04 | 0.00 | 84 | 1013.2 |
| 20260506131502 | 56 | 330 | 0.9 | 1.7 | 0.00 | 0.04 | 0.00 | 84 | 1013.2 |
| 20260506131003 | 56 | 46 | 0.9 | 1.7 | 0.00 | 0.04 | 0.00 | 84 | 1013.4 |
| 20260506130503 | 56 | 37 | 0.9 | 2.6 | 0.00 | 0.04 | 0.00 | 83 | 1013.5 |
| 20260506130003 | 56 | 63 | 0.0 | 2.6 | 0.00 | 0.04 | 0.00 | 84 | 1013.3 |
| 20260506125503 | 56 | 159 | 0.0 | 1.7 | 0.00 | 0.04 | 0.00 | 83 | 1013.3 |
| 20260506125003 | 56 | 159 | 0.0 | 1.7 | 0.00 | 0.04 | 0.00 | 83 | 1013.1 |
| 20260506124503 | 56 | 160 | 0.0 | 1.7 | 0.00 | 0.04 | 0.00 | 83 | 1013.0 |
| 20260506122002 | 56 | 40 | 0.9 | 2.6 | 0.00 | 0.04 | 0.00 | 81 | 1012.8 |
| 20260506121502 | 56 | 359 | 0.9 | 2.6 | 0.00 | 0.04 | 0.00 | 81 | 1012.8 |
| 20260506120503 | 56 | 35 | 0.9 | 3.5 | 0.00 | 0.04 | 0.00 | 81 | 1012.7 |
| 20260506120002 | 56 | 28 | 0.9 | 3.5 | 0.00 | 0.04 | 0.00 | 80 | 1012.6 |
| 20260506115503 | 56 | 29 | 0.9 | 1.7 | 0.00 | 0.04 | 0.00 | 80 | 1012.4 |
| 20260506115003 | 57 | 39 | 0.9 | 2.6 | 0.00 | 0.04 | 0.00 | 80 | 1012.3 |
| 20260506114502 | 57 | 61 | 0.0 | 2.6 | 0.00 | 0.04 | 0.00 | 80 | 1012.1 |
| 20260506114003 | 57 | 55 | 0.9 | 1.7 | 0.00 | 0.04 | 0.00 | 80 | 1012.0 |
| 20260506113503 | 57 | 47 | 0.9 | 3.5 | 0.00 | 0.04 | 0.00 | 80 | 1011.8 |
| 20260506113003 | 57 | 39 | 0.9 | 3.5 | 0.00 | 0.04 | 0.00 | 79 | 1011.8 |
| 20260506112503 | 57 | 21 | 0.9 | 3.5 | 0.00 | 0.04 | 0.00 | 79 | 1012.1 |
| 20260506111003 | 58 | 68 | 0.9 | 1.7 | 0.00 | 0.04 | 0.00 | 79 | 1011.7 |
| 20260506110503 | 58 | 45 | 0.0 | 1.7 | 0.00 | 0.04 | 0.00 | 78 | 1011.7 |
| 20260506110004 | 58 | 2 | 0.9 | 1.7 | 0.00 | 0.04 | 0.00 | 78 | 1011.5 |
| 20260506105503 | 58 | 11 | 0.9 | 1.7 | 0.00 | 0.04 | 0.00 | 78 | 1011.5 |
| 20260506105003 | 58 | 56 | 0.0 | 1.7 | 0.00 | 0.04 | 0.00 | 78 | 1011.3 |
| 20260506104503 | 58 | 97 | 0.0 | 1.7 | 0.00 | 0.04 | 0.00 | 78 | 1011.2 |
| 20260506103004 | 58 | 336 | 0.9 | 1.7 | 0.00 | 0.04 | 0.00 | 78 | 1011.0 |
| 20260506102503 | 58 | 283 | 0.0 | 1.7 | 0.00 | 0.04 | 0.00 | 78 | 1010.8 |
| 20260506102002 | 58 | 280 | 0.0 | 1.7 | 0.00 | 0.04 | 0.00 | 78 | 1010.6 |
| 20260506101503 | 59 | 325 | 0.9 | 1.7 | 0.00 | 0.04 | 0.00 | 78 | 1010.6 |
| 20260506101003 | 59 | 60 | 0.0 | 1.7 | 0.00 | 0.04 | 0.00 | 78 | 1010.4 |
| 20260506100503 | 59 | 47 | 0.0 | 1.7 | 0.00 | 0.04 | 0.00 | 78 | 1010.5 |
| 20260506100004 | 59 | 11 | 0.0 | 1.7 | 0.00 | 0.04 | 0.00 | 78 | 1010.5 |
| 20260506095503 | 59 | 325 | 0.0 | 1.7 | 0.00 | 0.04 | 0.00 | 78 | 1010.6 |
| 20260506094503 | 59 | 43 | 0.0 | 1.7 | 0.00 | 0.04 | 0.00 | 77 | 1010.4 |
| 20260506094003 | 59 | 56 | 0.0 | 3.5 | 0.00 | 0.04 | 0.00 | 77 | 1010.4 |
| 20260506093503 | 59 | 221 | 0.0 | 3.5 | 0.00 | 0.04 | 0.00 | 78 | 1010.5 |
| 20260506093003 | 59 | 225 | 0.0 | 0.9 | 0.00 | 0.04 | 0.00 | 78 | 1010.5 |
| 20260506092503 | 59 | 224 | 0.0 | 0.9 | 0.00 | 0.04 | 0.00 | 78 | 1010.4 |
| 20260506091503 | 59 | 238 | 0.0 | 0.9 | 0.00 | 0.04 | 0.00 | 78 | 1010.3 |
| 20260506090003 | 60 | 109 | 0.0 | 0.9 | 0.00 | 0.04 | 0.00 | 78 | 1010.1 |
| 20260506085503 | 60 | 108 | 0.0 | 0.9 | 0.00 | 0.04 | 0.00 | 78 | 1010.0 |
| 20260506085003 | 60 | 108 | 0.0 | 0.9 | 0.00 | 0.04 | 0.00 | 79 | 1009.9 |
| 20260506084503 | 60 | 108 | 0.0 | 0.9 | 0.00 | 0.04 | 0.00 | 79 | 1009.9 |
| 20260506084003 | 60 | 108 | 0.0 | 0.9 | 0.00 | 0.04 | 0.00 | 78 | 1010.0 |
| 20260506083503 | 60 | 0 | 0.0 | 0.0 | 0.00 | 0.04 | 0.00 | 79 | 1009.7 |
| 20260506083003 | 60 | 108 | 0.0 | 0.9 | 0.00 | 0.04 | 0.00 | 79 | 1009.5 |
| 20260506082502 | 60 | 109 | 0.0 | 0.9 | 0.00 | 0.04 | 0.00 | 79 | 1009.4 |
| 20260506081504 | 60 | 138 | 0.0 | 1.7 | 0.00 | 0.04 | 0.00 | 79 | 1009.4 |
| 20260506081003 | 60 | 79 | 0.0 | 2.6 | 0.00 | 0.04 | 0.00 | 79 | 1009.5 |
| 20260506080503 | 61 | 65 | 0.0 | 2.6 | 0.00 | 0.04 | 0.00 | 79 | 1009.6 |
| 20260506073504 | 61 | 102 | 0.0 | 1.7 | 0.00 | 0.04 | 0.00 | 79 | 1009.8 |
| 20260506073003 | 62 | 102 | 0.0 | 1.7 | 0.00 | 0.04 | 0.00 | 79 | 1009.8 |
| 20260506072503 | 62 | 108 | 0.0 | 1.7 | 0.00 | 0.04 | 0.00 | 80 | 1009.7 |
| 20260506072003 | 62 | 94 | 0.0 | 1.7 | 0.00 | 0.04 | 0.00 | 80 | 1009.7 |
| 20260506071503 | 62 | 88 | 0.0 | 0.9 | 0.00 | 0.04 | 0.00 | 80 | 1009.8 |
| 20260506071003 | 62 | 81 | 0.0 | 1.7 | 0.00 | 0.04 | 0.00 | 80 | 1009.7 |
| 20260506070503 | 62 | 86 | 0.0 | 1.7 | 0.00 | 0.04 | 0.00 | 80 | 1009.7 |
| 20260506062504 | 64 | 356 | 0.0 | 1.7 | 0.00 | 0.04 | 0.00 | 80 | 1009.5 |
| 20260506062004 | 64 | 326 | 0.0 | 0.9 | 0.00 | 0.04 | 0.00 | 80 | 1009.5 |
| 20260506061503 | 64 | 348 | 0.0 | 2.6 | 0.00 | 0.04 | 0.00 | 80 | 1009.4 |
| 20260506061004 | 64 | 301 | 0.0 | 2.6 | 0.00 | 0.04 | 0.00 | 80 | 1009.5 |
| 20260506060503 | 64 | 243 | 0.0 | 2.6 | 0.00 | 0.04 | 0.00 | 80 | 1009.4 |
| 20260506051004 | 67 | 258 | 0.0 | 1.7 | 0.00 | 0.04 | 0.00 | 79 | 1009.1 |
| 20260506050503 | 67 | 287 | 0.0 | 0.9 | 0.00 | 0.04 | 0.00 | 79 | 1009.2 |
| 20260506045003 | 68 | 90 | 0.0 | 2.6 | 0.00 | 0.04 | 0.04 | 79 | 1009.1 |
| 20260506044501 | 68 | 227 | 0.0 | 2.6 | 0.00 | 0.04 | 0.04 | 79 | 1009.0 |
| 20260506043002 | 69 | 39 | 0.0 | 1.7 | 0.00 | 0.04 | 0.04 | 79 | 1008.7 |
| 20260506042501 | 70 | 42 | 0.0 | 1.7 | 0.00 | 0.04 | 0.04 | 79 | 1008.8 |
| 20260506042001 | 70 | 18 | 0.0 | 2.6 | 0.00 | 0.04 | 0.04 | 79 | 1008.6 |
| 20260506041501 | 70 | 23 | 0.0 | 2.6 | 0.00 | 0.04 | 0.04 | 79 | 1008.5 |
| 20260506040501 | 70 | 22 | 0.0 | 0.9 | 0.00 | 0.04 | 0.04 | 79 | 1008.5 |
| 20260506040001 | 70 | 23 | 0.0 | 1.7 | 0.00 | 0.04 | 0.04 | 79 | 1008.5 |
| 20260506035501 | 71 | 15 | 0.0 | 1.7 | 0.00 | 0.04 | 0.04 | 78 | 1008.5 |
| 20260506035001 | 71 | 28 | 0.9 | 5.2 | 0.00 | 0.04 | 0.04 | 78 | 1008.4 |
| 20260506034501 | 71 | 48 | 0.0 | 5.2 | 0.00 | 0.04 | 0.04 | 78 | 1008.3 |
| 20260506034001 | 72 | 51 | 0.0 | 0.9 | 0.00 | 0.04 | 0.04 | 78 | 1008.2 |
| 20260506033501 | 72 | 47 | 0.0 | 2.6 | 0.00 | 0.04 | 0.04 | 79 | 1008.1 |
| 20260506033001 | 72 | 50 | 0.0 | 2.6 | 0.00 | 0.04 | 0.04 | 79 | 1008.2 |
| 20260506032502 | 72 | 67 | 0.0 | 2.6 | 0.00 | 0.04 | 0.04 | 79 | 1008.0 |
| 20260506032001 | 73 | 44 | 0.9 | 2.6 | 0.00 | 0.04 | 0.04 | 78 | 1008.0 |
| 20260506031501 | 73 | 29 | 0.9 | 2.6 | 0.00 | 0.04 | 0.04 | 78 | 1008.1 |
| 20260506031001 | 74 | 29 | 0.9 | 2.6 | 0.00 | 0.04 | 0.04 | 78 | 1007.9 |
| 20260506030501 | 74 | 61 | 0.9 | 1.7 | 0.00 | 0.04 | 0.04 | 79 | 1007.7 |
| 20260506030002 | 74 | 94 | 0.0 | 1.7 | 0.00 | 0.04 | 0.04 | 79 | 1007.5 |
| 20260506025001 | 73 | 87 | 0.0 | 1.7 | 0.00 | 0.04 | 0.04 | 80 | 1007.2 |
| 20260506024502 | 73 | 100 | 0.0 | 1.7 | 0.00 | 0.04 | 0.04 | 81 | 1007.2 |
| 20260506024001 | 73 | 77 | 0.0 | 0.9 | 0.00 | 0.04 | 0.04 | 81 | 1006.7 |
| 20260506023502 | 73 | 12 | 0.0 | 0.9 | 0.00 | 0.04 | 0.04 | 82 | 1006.5 |
| 20260506023001 | 73 | 12 | 0.0 | 0.9 | 0.00 | 0.04 | 0.04 | 82 | 1006.4 |
| 20260506022502 | 73 | 348 | 0.0 | 0.9 | 0.00 | 0.04 | 0.04 | 84 | 1006.2 |
| 20260506022001 | 73 | 71 | 0.0 | 0.9 | 0.00 | 0.04 | 0.04 | 83 | 1006.1 |
| 20260506021502 | 73 | 129 | 0.0 | 1.7 | 0.00 | 0.04 | 0.04 | 84 | 1006.1 |
| 20260506021001 | 73 | 130 | 0.0 | 1.7 | 0.00 | 0.04 | 0.04 | 83 | 1006.2 |
| 20260506020501 | 73 | 130 | 0.0 | 0.9 | 0.00 | 0.04 | 0.04 | 83 | 1006.2 |
| 20260506015501 | 74 | 131 | 0.0 | 1.7 | 0.00 | 0.04 | 0.04 | 83 | 1006.1 |
| 20260506015001 | 75 | 132 | 0.0 | 2.6 | 0.00 | 0.04 | 0.04 | 85 | 1005.9 |
| 20260506014501 | 76 | 136 | 0.0 | 2.6 | 0.00 | 0.04 | 0.04 | 82 | 1005.5 |
| 20260506014002 | 77 | 208 | 0.0 | 0.9 | 0.00 | 0.04 | 0.04 | 82 | 1005.6 |
| 20260506013502 | 78 | 208 | 0.0 | 0.9 | 0.02 | 0.04 | 0.04 | 86 | 1005.6 |
| 20260506013001 | 79 | 208 | 0.0 | 0.9 | 0.02 | 0.04 | 0.04 | 86 | 1005.8 |
| 20260506012502 | 79 | 208 | 0.0 | 1.7 | 0.03 | 0.04 | 0.04 | 86 | 1005.9 |
| 20260506012002 | 79 | 208 | 0.0 | 1.7 | 0.04 | 0.04 | 0.04 | 85 | 1005.5 |
| 20260506011502 | 79 | 198 | 1.7 | 7.8 | 0.04 | 0.04 | 0.04 | 84 | 1005.1 |
| 20260506011001 | 79 | 195 | 1.7 | 7.8 | 0.04 | 0.04 | 0.04 | 85 | 1005.1 |
| 20260506010502 | 79 | 193 | 0.9 | 5.2 | 0.04 | 0.04 | 0.04 | 85 | 1004.7 |
| 20260506005501 | 79 | 192 | 0.9 | 7.0 | 0.04 | 0.04 | 0.04 | 85 | 1005.0 |
| 20260506005002 | 79 | 226 | 0.0 | 1.7 | 0.04 | 0.04 | 0.04 | 86 | 1005.1 |
| 20260506004501 | 80 | 228 | 0.0 | 1.7 | 0.04 | 0.04 | 0.04 | 85 | 1005.0 |
| 20260506004001 | 80 | 228 | 0.0 | 3.5 | 0.04 | 0.04 | 0.04 | 84 | 1005.1 |
| 20260506003001 | 81 | 255 | 0.9 | 4.3 | 0.02 | 0.02 | 0.02 | 82 | 1005.0 |
| 20260506002502 | 82 | 239 | 1.7 | 4.3 | 0.01 | 0.01 | 0.01 | 80 | 1005.0 |
| 20260506002001 | 82 | 194 | 1.7 | 7.0 | 0.00 | 0.00 | 0.00 | 80 | 1004.8 |
| 20260506001502 | 82 | 185 | 2.6 | 7.8 | 0.00 | 0.00 | 0.00 | 79 | 1004.8 |
| 20260506001002 | 83 | 183 | 2.6 | 7.8 | 0.00 | 0.00 | 0.00 | 79 | 1004.7 |
| 20260506000501 | 83 | 174 | 2.6 | 7.8 | 0.00 | 0.00 | 0.00 | 76 | 1004.2 |
| 20260506000002 | 83 | 169 | 2.6 | 6.1 | 0.00 | 0.00 | 0.00 | 76 | 1004.2 |
| 20260505235501 | 84 | 173 | 3.5 | 9.6 | 0.00 | 0.00 | 0.00 | 76 | 1003.9 |
| 20260505235001 | 84 | 174 | 3.5 | 10.4 | 0.00 | 0.00 | 0.00 | 75 | 1003.8 |
| 20260505234502 | 84 | 186 | 4.3 | 10.4 | 0.00 | 0.00 | 0.00 | 75 | 1004.0 |
| 20260505233002 | 86 | 181 | 4.3 | 10.4 | 0.00 | 0.00 | 0.00 | 73 | 1004.2 |
| 20260505232501 | 86 | 178 | 3.5 | 10.4 | 0.00 | 0.00 | 0.00 | 72 | 1004.0 |
| 20260505231502 | 87 | 185 | 2.6 | 7.8 | 0.00 | 0.00 | 0.00 | 71 | 1004.1 |
| 20260505231001 | 88 | 181 | 3.5 | 7.8 | 0.00 | 0.00 | 0.00 | 70 | 1004.1 |
| 20260505230502 | 88 | 187 | 4.3 | 8.7 | 0.00 | 0.00 | 0.00 | 69 | 1003.9 |
| 20260505230002 | 88 | 193 | 3.5 | 8.7 | 0.00 | 0.00 | 0.00 | 69 | 1003.9 |
| 20260505225501 | 88 | 186 | 3.5 | 9.6 | 0.00 | 0.00 | 0.00 | 69 | 1003.7 |
| 20260505225002 | 88 | 173 | 3.5 | 9.6 | 0.00 | 0.00 | 0.00 | 69 | 1003.9 |
| 20260505224502 | 88 | 172 | 3.5 | 10.4 | 0.00 | 0.00 | 0.00 | 69 | 1003.9 |
| 20260505224002 | 89 | 171 | 4.3 | 10.4 | 0.00 | 0.00 | 0.00 | 69 | 1003.7 |
| 20260505222502 | 89 | 190 | 3.5 | 11.3 | 0.00 | 0.00 | 0.00 | 69 | 1003.8 |
| 20260505222002 | 89 | 184 | 3.5 | 11.3 | 0.00 | 0.00 | 0.00 | 69 | 1003.8 |
| 20260505221502 | 89 | 183 | 4.3 | 11.3 | 0.00 | 0.00 | 0.00 | 68 | 1003.8 |
| 20260505221002 | 89 | 178 | 4.3 | 10.4 | 0.00 | 0.00 | 0.00 | 68 | 1003.6 |
| 20260505220502 | 89 | 183 | 3.5 | 9.6 | 0.00 | 0.00 | 0.00 | 68 | 1003.6 |
| 20260505220002 | 90 | 195 | 3.5 | 10.4 | 0.00 | 0.00 | 0.00 | 67 | 1003.7 |
| 20260505215502 | 89 | 191 | 4.3 | 10.4 | 0.00 | 0.00 | 0.00 | 67 | 1003.7 |
| 20260505215001 | 90 | 192 | 3.5 | 8.7 | 0.00 | 0.00 | 0.00 | 66 | 1003.7 |
| 20260505214502 | 90 | 195 | 3.5 | 8.7 | 0.00 | 0.00 | 0.00 | 67 | 1003.7 |
| 20260505214002 | 89 | 190 | 3.5 | 8.7 | 0.00 | 0.00 | 0.00 | 68 | 1003.8 |
| 20260505213501 | 89 | 179 | 3.5 | 9.6 | 0.00 | 0.00 | 0.00 | 67 | 1003.8 |
| 20260505213002 | 89 | 178 | 4.3 | 9.6 | 0.00 | 0.00 | 0.00 | 67 | 1003.8 |
| 20260505212002 | 89 | 196 | 4.3 | 11.3 | 0.00 | 0.00 | 0.00 | 67 | 1004.0 |
| 20260505211502 | 89 | 190 | 3.5 | 9.6 | 0.00 | 0.00 | 0.00 | 66 | 1004.0 |
| 20260505210002 | 90 | 181 | 3.5 | 7.8 | 0.00 | 0.00 | 0.00 | 66 | 1004.1 |
| 20260505205502 | 90 | 195 | 3.5 | 7.8 | 0.00 | 0.00 | 0.00 | 66 | 1004.2 |
| 20260505205003 | 90 | 203 | 3.5 | 7.8 | 0.00 | 0.00 | 0.00 | 64 | 1004.3 |
| 20260505204502 | 90 | 198 | 3.5 | 7.8 | 0.00 | 0.00 | 0.00 | 65 | 1004.4 |
| 20260505204001 | 89 | 204 | 3.5 | 7.8 | 0.00 | 0.00 | 0.00 | 67 | 1004.4 |
| 20260505203502 | 89 | 207 | 2.6 | 7.8 | 0.00 | 0.00 | 0.00 | 66 | 1004.4 |
| 20260505203002 | 88 | 202 | 3.5 | 11.3 | 0.00 | 0.00 | 0.00 | 69 | 1004.5 |
| 20260505202502 | 88 | 197 | 4.3 | 11.3 | 0.00 | 0.00 | 0.00 | 67 | 1004.5 |
| 20260505201501 | 88 | 199 | 4.3 | 11.3 | 0.00 | 0.00 | 0.00 | 66 | 1004.6 |